Hourly Data Report for January 23, 2022

TERRACE A
BRITISH COLUMBIA
Current Station Operator: NAVCAN

54°28'07.000" N
128°34'42.000" W
217.30 m
1068134
71951
YXT

Download Data

Hourly Data (January 2022)
Hourly Data Report for January 23, 2022
TIME
LST
Temp Definition
°C
Dew Point Definition
°C
Rel Hum Definition
%
Precip. Amount Definition
mm

Wind Dir Definition
10's deg

Wind Spd Definition
km/h
Visibility Definition
km
Stn Press Definition
kPa
Hmdx Definition


Wind Chill Definition


Weather Definition


00:00 3.2 -1.0 74 LegendMM 21 13 24.1 99.98     LegendNANA
01:00 2.9 -0.9 76 LegendMM 26 17 24.1 100.06     Cloudy
02:00 3.0 0.4 83 LegendMM 20 17 16.1 100.07     LegendNANA
03:00 2.5 1.8 95 LegendMM 16 24 12.9 100.13     Rain
04:00 2.6 1.8 94 LegendMM 18 28 12.9 100.15     Rain
05:00 2.5 1.8 95 LegendMM 23 11 16.1 100.17     Rain
06:00 2.6 1.9 95 LegendMM 19 15 16.1 100.24     Rain
07:00 2.2 1.9 98 LegendMM 20 13 24.1 100.21     Cloudy
08:00 2.1 1.7 97 LegendMM 20 5 12.9 100.19     LegendNANA
09:00 2.1 1.9 98 LegendMM 26 4 12.9 100.24     Rain Showers
10:00 2.1 2.0 99 LegendMM 17 7 16.1 100.25     Rain
11:00 2.4 2.3 99 LegendMM 36 2 9.7 100.30     Rain, Fog
12:00 2.6 2.5 99 LegendMM 20 7 8.1 100.29     Rain, Fog
13:00 2.7 2.5 99 LegendMM 36 3 6.4 100.29     Rain, Fog
14:00 2.8 2.7 99 LegendMM 36 2 9.7 100.31     Rain, Fog
15:00 2.7 2.5 99 LegendMM 36 3 9.7 100.30     Rain, Fog
16:00 2.5 2.5 100 LegendMM 0 1 8.1 100.31     Rain, Fog
17:00 2.3 2.3 100 LegendMM 36 1 9.7 100.30     Rain, Fog
18:00 1.4 1.4 100 LegendMM 20 4 1.6 100.31     Rain, Fog
19:00 1.9 1.9 100 LegendMM 14 4 2.4 100.28     Fog
20:00 1.7 1.7 100 LegendMM 36 2 0.4 100.25     Fog
21:00 1.3 1.3 100 LegendMM 34 4 1.6 100.31     Fog
22:00 1.2 1.2 100 LegendMM 36 2 0.8 100.30     Fog
23:00 1.0 1.0 100 LegendMM 34 6 0.8 100.31     Fog

Notes on Data Quality.

Legend

  • E = Estimated
  • M = Missing
  • NA = Not Available*
  • [empty] = Indicates an unobserved value
Date modified: